Regional Weather Roundup
Issued by NWS Green Bay, WI

Home | Current Version | Previous Version | Graphics & Text | Print | Product List | Glossary Off
Versions: 1 2 3 4 5 6 7 8 9 10 11 12 13 14 15 16 17 18 19 20 21 22 23 24 25 26 27 28 29 30 31 32 33 34 35 36 37 38 39 40 41 42 43 44 45 46 47 48 49 50

000
ASUS43 KGRB 080100
RWRGRB

NORTH-CENTRAL AND NORTHEAST WISCONSIN REGIONAL WEATHER ROUNDUP
NATIONAL WEATHER SERVICE GREEN BAY WI
700 PM CST SUN FEB 07 2016

WIZ005-009-010>012-018-019-080200-
NORTH CENTRAL WISCONSIN

CITY           SKY/WX    TMP DP  RH WIND       PRES   REMARKS
IRONWOOD       CLOUDY    34  32  93 SW9       29.49S
MANITOWISH WTR NOT AVBL
ARBOR VITAE    NOT AVBL
EAGLE RIVER    NOT AVBL
LAND O LAKES   NOT AVBL
RHINELANDER    CLOUDY    33  28  81 SW8       29.54S
PHILLIPS       NOT AVBL
ANTIGO         NOT AVBL
TOMAHAWK       NOT AVBL
MERRILL        NOT AVBL
$$

WIZ013-073-080200-
NORTHEAST WISCONSIN

CITY           SKY/WX    TMP DP  RH WIND       PRES   REMARKS
IRON MOUNTAIN  CLOUDY    34  30  85 S3        29.54S
MARINETTE      CLOUDY    37  28  70 SW7       29.59F
$$

WIZ017-030-035>037-045-080200-
CENTRAL WISCONSIN

CITY           SKY/WX    TMP DP  RH WIND       PRES   REMARKS
MEDFORD        NOT AVBL
WAUSAU         CLOUDY    37  26  64 W10       29.56S
MOSINEE        NOT AVBL
MARSHFIELD     CLOUDY    36  25  64 SW7       29.58S
WISC RAPIDS    CLOUDY    37  23  56 W9        29.62F
STEVENS POINT  NOT AVBL
WAUPACA        NOT AVBL
SHAWANO        NOT AVBL
CLINTONVILLE   NOT AVBL
WAUTOMA        NOT AVBL
$$

WIZ038-039-048-051-080200-
FOX VALLEY

CITY           SKY/WX    TMP DP  RH WIND       PRES   REMARKS
NWS GREEN BAY  CLOUDY    37  30  75 S5        29.61S
APPLETON       CLOUDY    37  27  65 SW10      29.60S
OSHKOSH        PTCLDY    37  26  64 SW8       29.63S
FOND DU LAC    CLEAR     36  27  69 SW9       29.65R
$$

WIZ022-050-052-080200-
EAST CENTRAL WISCONSIN

CITY           SKY/WX    TMP DP  RH WIND       PRES   REMARKS
EPHRAIM        NOT AVBL
STURGEON BAY   CLOUDY    36  28  75 S6        29.62F
MANITOWOC      NOT AVBL
SHEBOYGAN      PTCLDY    35  29  78 SW10      29.65S
$$

LMZ563-521-522-541>543-080200-
LAKESHORE

STATION/POSITION TIME  TEMP    WIND        PRES    VSBY  WAVE
                       AIR SEA DIR/SP/G                  HT/PER
                 (UTC) (F)     (DEG/KT/KT) (MB)    (MI)  (FT/S)
SHEBOYGAN LKSHOR 0000   40     210/  9/ 11 1004.8S
KEWAUNEE LKSHORE 0000   38     210/  7/  8 1002.6F
NORTHPORT PIER   0000   38      CALM  /  3 1002.7R
CHAMBERS ISLAND  0000   37     190/  6/ 11 1003.0R
MENOMINEE LKSHOR 0000   37     190/  6     1001.5R
$$




USA.gov is the U.S. government's official web portal to all federal, state and local government web resources and services.